Torna al catalogo

STARLINK-37327

AttivoComunicazioniSSO
NORAD 68736·PAYLOAD·🇺🇸 United States

Lanciato Apr 15, 2026 da Vandenberg Space Force Base

Loading…

Prossimi Passaggi (prossime 24 ore)

TLE

AggiornatoSource: CelesTrak SupGP

Epoca: Sep 15, 2026, 03:21 UTC

1 68736C 26082J   26258.14006944  .00006942  00000+0  21549-3 0  2581
2 68736  97.2850 120.3255 0001801  93.9294 186.9354 15.33437459    18

Traccia STARLINK-37327 in tempo reale con AllMySat

Download on the App Store